Juliana Airport, Sint Maarten

6:56 PM AST on September 20, 2017 (GMT -0400)
Princess Juliana International

Weather History for TNCM - May, 2014

Change the Weather History Date:

Monday, May 5, 2014

  Actual Average Record
Temperature  
Mean Temperature 81 °F -  
Max Temperature 84 °F 84 °F 87 °F (2013)
Min Temperature 78 °F 75 °F 73 °F (2000)
Cooling Degree Days 16    
Growing Degree Days 31 (Base 50)    
Moisture  
Dew Point 71 °F    
Average Humidity 69    
Maximum Humidity 74    
Minimum Humidity 59    
Precipitation  
Precipitation 0.00 in 0.12 in - ()
Sea Level Pressure  
Sea Level Pressure 29.98 in    
Wind  
Wind Speed 6 mph ()    
Max Wind Speed 9 mph    
Max Gust Speed -    
Visibility 6.2 miles    
Events      
Averages and records for this station are not official NWS values.
T = Trace of Precipitation, MM = Missing Value Source: Averaged Metar Reports

Daily Weather History Graph

Daily Weather History Graph

Search for Another Location

Airport or City:

Trip Planner

Search our weather history database for the weather conditions in past years. The results will help you decide how hot, cold, wet, or windy it might be!

Date:

Astronomy

May. 05, 2014 Rise Set
Actual Time 5:43 AM AST 6:34 PM AST
Civil Twilight 5:20 AM AST 6:57 PM AST
Nautical Twilight 4:53 AM AST 7:24 PM AST
Astronomical Twilight 4:26 AM AST 7:52 PM AST
Moon 10:56 AM AST (5/5) 11:58 PM AST (5/5)
Length of Visible Light 13h 37m
Length of Day
12h 51m
Waxing Crescent, 36% of the Moon is Illuminated
May 5
Waxing Crescent
May 6
First Quarter
May 14
Full
May 21
Last Quarter
May 28
New

Hourly Weather History & Observations

Time (AST) Temp. Heat Index Dew Point Humidity Pressure Visibility Wind Dir Wind Speed Gust Speed Precip Events Conditions
12:00 AM 78.8 °F - 69.8 °F 74% 30.01 in 6.2 mi ESE 8.1 mph - N/A   Partly Cloudy
1:00 AM 78.8 °F - 69.8 °F 74% 29.98 in 6.2 mi ESE 8.1 mph - N/A   Partly Cloudy
2:00 AM 79 °F - 70 °F 67% 29.99 in 28 mi SE 8.1 mph - -   Scattered Clouds
2:00 AM 78.8 °F - 69.8 °F 74% 29.98 in 6.2 mi ESE 8.1 mph - N/A   Partly Cloudy
3:00 AM 78.8 °F - 69.8 °F 74% 29.98 in 6.2 mi ESE 6.9 mph - N/A   Partly Cloudy
4:00 AM 78.8 °F - 69.8 °F 74% 29.98 in 6.2 mi ESE 5.8 mph - N/A   Partly Cloudy
5:00 AM 79 °F - 70 °F 67% 30.00 in 28 mi SSE 8.1 mph - -   Scattered Clouds
5:00 AM 78.8 °F - 69.8 °F 74% 29.98 in 6.2 mi SE 6.9 mph - N/A   Partly Cloudy
6:00 AM 78.8 °F - 69.8 °F 74% 30.01 in 6.2 mi SE 6.9 mph - N/A   Partly Cloudy
7:00 AM 80.6 °F 84.6 °F 71.6 °F 74% 30.01 in 6.2 mi SE 9.2 mph - N/A   Partly Cloudy
8:00 AM 81 °F - 72 °F 67% 30.04 in 34 mi SE 9.2 mph - -   Partly Cloudy
8:00 AM 80.6 °F 84.6 °F 71.6 °F 74% 30.04 in 6.2 mi SE 9.2 mph - N/A   Scattered Clouds
9:00 AM 82.4 °F 87.2 °F 71.6 °F 70% 30.04 in 6.2 mi SE 6.9 mph - N/A   Partly Cloudy
10:00 AM 82.4 °F 86.3 °F 69.8 °F 66% 30.04 in 6.2 mi SSE 6.9 mph - N/A   Partly Cloudy
11:00 AM 84 °F - 72 °F 59% 30.03 in 34 mi SSE 6.9 mph - -   Scattered Clouds
11:00 AM 84.2 °F 89.6 °F 71.6 °F 66% 30.01 in 6.2 mi SSE 6.9 mph - N/A   Partly Cloudy
12:00 PM 84.2 °F 89.6 °F 71.6 °F 66% 30.01 in 6.2 mi SSE 8.1 mph - N/A   Partly Cloudy
1:00 PM 84.2 °F 89.6 °F 71.6 °F 66% 29.98 in 6.2 mi SE 8.1 mph - N/A   Partly Cloudy
2:00 PM 84 °F - 72 °F 59% 29.97 in 34 mi SSE 5.8 mph - -   Scattered Clouds
2:00 PM 84.2 °F 89.6 °F 71.6 °F 66% 29.95 in 6.2 mi SSE 5.8 mph - N/A   Partly Cloudy
3:00 PM 84.2 °F 89.6 °F 71.6 °F 66% 29.95 in 6.2 mi SSE 5.8 mph - N/A   Partly Cloudy
4:00 PM 84.2 °F 89.6 °F 71.6 °F 66% 29.92 in 6.2 mi Variable 3.5 mph - N/A   Partly Cloudy
5:00 PM 83 °F - 71 °F 60% 29.92 in 34 mi SSE 6.9 mph - -   Scattered Clouds
5:00 PM 82.4 °F 87.2 °F 71.6 °F 70% 29.92 in 6.2 mi SSE 6.9 mph - N/A   Partly Cloudy
6:00 PM 82.4 °F 86.3 °F 69.8 °F 66% 29.92 in 6.2 mi SSE 4.6 mph - N/A   Partly Cloudy
7:00 PM 80.6 °F 83.9 °F 69.8 °F 70% 29.95 in 6.2 mi Variable 2.3 mph - N/A   Partly Cloudy
8:00 PM 80 °F - 71 °F 66% 29.97 in 34 mi SE 3.5 mph - -   Scattered Clouds
8:00 PM 80.6 °F 84.6 °F 71.6 °F 74% 29.95 in 6.2 mi SE 3.5 mph - N/A   Partly Cloudy
9:00 PM 80.6 °F 84.6 °F 71.6 °F 74% 29.98 in 6.2 mi Variable 3.5 mph - N/A   Partly Cloudy
10:00 PM 80.6 °F 84.6 °F 71.6 °F 74% 29.98 in 6.2 mi Variable 2.3 mph - N/A   Partly Cloudy
11:00 PM 80 °F - 71 °F 66% 29.99 in 31 mi SE 4.6 mph - -   Scattered Clouds
11:00 PM 80.6 °F 84.6 °F 71.6 °F 74% 29.98 in 6.2 mi SE 4.6 mph - N/A   Partly Cloudy